Weather observations for the past three days for
Rapid City, Rapid City Regional Airport
Metric (Imperial)
Date Time (mdt) Wind (kph) Vis. (km) Weather Sky Cond. Temperature (ºC) Relative Humidity Wind Chill (°C) Heat Index (°C) Pressure Precipitation (cm)
Air Dwpt 6 hour altimeter (cm) sea level (mb) 1 hr 3 hr 6 hr
Max. Min.
24 22:52 Calm 16.09 Fair CLR 7.2 2.2 71% 75.62 1007.8
24 21:52 Calm 16.09 Fair CLR 9.4 3.3 66% 75.62 1007.9
24 20:52 E 11 16.09 Fair CLR 11.1 3.9 61% 75.59 1007.4
24 19:52 E 13 16.09 Fair CLR 14.4 6.7 60% 75.54 1006.3
24 18:52 SE 13 16.09 Fair CLR 17.2 4.4 43% 75.51 1006.0
24 17:52 S 9 16.09 Fair CLR 17.8 3.9 19.4 16.1 40% 75.57 1006.5
24 16:52 Calm 16.09 Fair CLR 18.9 2.8 34% 75.62 1006.9
24 15:52 Vrbl 6 16.09 Mostly Cloudy BKN080 BKN100 18.9 2.8 34% 75.64 1007.5
24 14:52 NW 22 G 33 16.09 A Few Clouds FEW100 18.9 3.3 36% 75.64 1007.8
24 13:52 N 28 G 41 16.09 Fair CLR 18.3 3.9 39% 75.67 1008.0
24 12:52 N 31 G 52 16.09 Fair CLR 17.2 2.2 37% 75.69 1008.6
24 11:52 NW 37 G 57 16.09 Fair and Breezy CLR 16.1 1.7 16.1 8.9 38% 75.69 1008.5
24 10:52 N 37 G 52 16.09 Fair and Breezy CLR 15 2.2 42% 75.72 1009.3
24 09:52 NW 41 G 65 16.09 Fair and Breezy CLR 13.3 1.1 44% 75.69 1008.8
24 07:52 NW 48 G 70 16.09 Fair and Windy CLR 10.6 1.1 52% 75.64 1008.3
24 06:52 NW 52 G 70 16.09 Fair and Windy CLR 9.4 0 52% 5 75.64 1008.1
24 04:52 NW 46 G 67 16.09 Overcast and Windy FEW035 OVC049 10 2.8 61% 6 75.49 1005.6
24 03:52 NW 43 G 67 16.09 Overcast and Windy BKN030 OVC034 8.9 3.3 68% 5 75.46 1005.2
24 02:52 NW 39 G 50 16.09 Mostly Cloudy and Breezy FEW036 BKN050 6.7 2.2 73% 2 75.39 1004.3
24 01:52 NW 30 G 46 16.09 Partly Cloudy SCT038 SCT048 8.9 1.7 61% 5 75.31 1003.1
24 00:52 NW 35 G 52 16.09 A Few Clouds and Breezy FEW043 FEW085 8.3 1.1 61% 4 75.31 1003.0
23 23:52 NW 30 G 48 16.09 Mostly Cloudy BKN110 10 1.7 15 6.7 57% 7 75.23 1002.0
23 22:52 N 13 16.09 Fair CLR 8.3 0.6 59% 6 75.23 1002.3
23 21:52 W 11 16.09 Fair CLR 10.6 -2.2 41% 75.23 1002.1
23 20:52 W 6 16.09 Fair CLR 12.2 0.6 45% 75.29 1002.7
23 19:52 SE 19 16.09 Fair CLR 12.2 5 62% 75.26 1002.8
23 18:52 SE 7 16.09 Fair CLR 14.4 3.9 50% 75.26 1002.6
23 17:52 W 11 16.09 Overcast OVC070 13.9 0.6 20 13.9 41% 75.34 1004.0
23 16:52 W 37 G 61 16.09 Overcast and Breezy BKN095 OVC110 16.7 -0.6 31% 75.29 1003.0
23 15:52 S 9 16.09 Partly Cloudy SCT110 18.9 9.4 54% 75.21 1001.9
23 14:52 NE 11 16.09 Mostly Cloudy BKN100 19.4 8.3 49% 75.16 1000.7
23 13:52 N 24 16.09 Fair CLR 19.4 6.7 44% 75.11 1000.4
23 12:52 N 26 16.09 Fair CLR 19.4 8.9 51% 75.08 999.6
23 11:52 Calm 16.09 Fair CLR 18.3 8.3 18.9 7.8 52% 75.13 1000.3
23 10:52 SW 7 16.09 Fair CLR 17.8 8.9 56% 75.11 1000.0
23 09:52 S 17 16.09 Fair CLR 16.1 7.8 58% 75.11 1000.2
23 08:52 SE 17 16.09 Fair CLR 15.6 7.8 60% 75.11 1000.2
23 07:52 SE 9 16.09 Fair CLR 12.8 5.6 62% 75.18 1001.2
23 06:52 SE 9 16.09 Fair CLR 10 6.1 77% 9 75.21 1001.6
23 05:52 Calm 16.09 Fair CLR 8.9 3.9 13.3 6.1 71% 75.18 1001.2
23 04:52 SE 9 16.09 Fair CLR 7.8 4.4 79% 6 75.18 1001.4
23 03:52 Calm 16.09 Fair CLR 6.7 3.3 79% 75.26 1002.3
23 02:52 Calm 16.09 Fair CLR 8.9 3.3 68% 75.31 1002.7
23 01:52 Calm 16.09 Fair CLR 6.7 3.3 79% 75.34 1003.6
23 00:52 SE 15 16.09 Fair CLR 10.6 3.9 64% 75.44 1004.5
22 23:52 SW 11 16.09 Fair CLR 12.8 5 20 11.7 59% 75.44 1004.2
22 22:52 Calm 16.09 A Few Clouds FEW120 13.3 6.1 62% 75.44 1004.4
22 21:52 SE 7 16.09 Partly Cloudy SCT120 13.9 7.2 64% 75.46 1004.9
22 20:52 Calm 16.09 Partly Cloudy SCT110 12.8 7.8 72% 75.49 1005.5
22 19:52 Calm 16.09 A Few Clouds FEW120 16.7 7.8 56% 75.46 1005.1
22 18:52 SE 9 16.09 Partly Cloudy SCT110 17.2 8.9 58% 75.46 1005.2
22 17:52 S 22 16.09 Fair CLR 20 5 22.2 18.9 38% 75.44 1005.1
22 16:52 SW 24 16.09 Fair CLR 20.6 2.8 31% 75.46 1005.4
22 15:52 SW 28 G 37 16.09 Overcast OVC100 21.1 0 25% 75.49 1005.3
22 14:52 SW 20 G 33 16.09 Partly Cloudy SCT100 21.7 1.1 26% 75.54 1006.1
22 13:52 S 24 G 43 16.09 Mostly Cloudy BKN100 20 3.9 35% 75.59 1006.7
22 12:52 S 26 G 44 16.09 Mostly Cloudy BKN100 19.4 3.9 36% 75.64 1007.3
22 10:52 SE 13 16.09 Fair CLR 18.9 4.4 39% 75.74 1008.7
22 08:52 S 9 16.09 Fair CLR 15 5.6 54% 75.84 1010.6
22 07:52 S 9 16.09 Fair CLR 12.2 5 62% 75.87 1011.4
22 06:52 SW 7 16.09 Fair CLR 9.4 3.3 66% 9 75.9 1011.9
22 05:52 SW 7 16.09 Fair CLR 6.1 2.2 10 5.6 76% 5 75.92 1012.4
22 04:52 W 7 16.09 Fair CLR 5.6 1.7 76% 4 75.95 1013.0
22 03:52 SW 9 16.09 Fair CLR 6.1 2.2 76% 4 75.97 1013.2
22 02:52 SW 11 16.09 Fair CLR 6.7 2.8 76% 5 75.97 1012.9
22 01:52 W 13 16.09 Partly Cloudy SCT060 7.8 3.3 73% 6 75.97 1013.1
22 00:52 W 7 16.09 Mostly Cloudy BKN065 8.9 5 77% 8 76 1013.2
21 23:52 W 9 16.09 Overcast FEW065 OVC090 10 5 12.8 9.4 71% 9 76.02 1013.5
Date Time (mdt) Wind (kph) Vis. (km) Weather Sky Cond. Air Dwpt Max. Min. Relative Humidity Wind Chill (°C) Heat Index (°C) altimeter (cm) sea level (mb) 1 hr 3 hr 6 hr
6 hour
Temperature (ºC) Pressure Precipitation (cm)